{"data":{"norad_id":68160,"epoch":"2026-05-25T00:34:59.883744Z","epoch_age_seconds":70270,"freshness":"FRESH","line1":"1 68160U 26049U   26145.02430421  .00018807  00000+0  58342-3 0  9994","line2":"2 68160  97.2858 166.6509 0000839  56.9503 303.1820 15.33444690 11348","mean_motion":15.3344469,"eccentricity":8.39e-5,"inclination_deg":97.2858,"raan_deg":166.6509,"arg_perigee_deg":56.9503,"mean_anomaly_deg":303.182,"bstar":0.00058342,"rev_number":1134,"period_min":93.906223640841,"perigee_km":464.96991197616,"apogee_km":466.11828166421,"semimajor_km":6843.6810968202,"source":"CELESTRAK","updated_at":"2026-05-25T13:38:21.850331Z"}}